User: anonymous   Login
Location: Brno
(49.2000°N, 16.6330°E)
Time: 09:00:17
(UTC+02:00)
Language:

A-11 Canister half - Orbit

View from above orbital plane
View from above orbital plane
View from above satellite
View from above satellite

Ground track
Ground track

The orbit data is extracted from the following two-line orbital elements,

1 00051U 60009C   21204.91678083 -.00000033  00000-0  49076-3 0  9998
2 00051  47.2108 185.3934 0109226 277.0051  81.8325 12.18277290713035
Epoch (UTC): 23 July 2021 22:00:09
Eccentricity: 0.0109226
inclination: 47.2108°
perigee height: 1513 km
apogee height: 1687 km
right ascension of ascending node: 185.3934°
argument of perigee: 277.0051°
revolutions per day: 12.18277290
mean anomaly at epoch: 81.8325°
orbit number at epoch: 71303

The dashed part of the orbit path shows where the satellite is in the earth's shadow,  

DLR